Rome, GA

7:58 AM EDT on April 21, 2018 (GMT -0400)
Russell

Weather History for KRMG - July, 2013

Change the Weather History Date:

Friday, July 5, 2013

  Actual Average Record
Temperature  
Mean Temperature 74 °F 79 °F  
Max Temperature 77 °F 90 °F 100 °F (2012)
Min Temperature 70 °F 68 °F 0 °F (1996)
Cooling Degree Days 9 14  
Month to date cooling degree days 46 70  
Year to date cooling degree days 555 568  
Since 1 June cooling degree days 412 400  
Growing Degree Days 23 (Base 50)    
Moisture  
Dew Point 71 °F    
Average Humidity 94    
Maximum Humidity 100    
Minimum Humidity 88    
Precipitation  
Precipitation 0.74 in 0.17 in 0.74 in (2013)
Month to date precipitation 2.62 0.91  
Year to date precipitation 22.84 27.88  
Sea Level Pressure  
Sea Level Pressure 30.14 in    
Wind  
Wind Speed 3 mph (SSE)    
Max Wind Speed 13 mph    
Max Gust Speed 16 mph    
Visibility 8 miles    
Events Rain    
T = Trace of Precipitation, MM = Missing Value Source: NWS Daily Summary

Daily Weather History Graph

Daily Weather History Graph

Search for Another Location

Airport or City:

Astronomy

Jul. 05, 2013 Rise Set
Actual Time 6:34 AM EDT 8:56 PM EDT
Civil Twilight 6:04 AM EDT 9:25 PM EDT
Nautical Twilight 5:29 AM EDT 10:01 PM EDT
Astronomical Twilight 4:49 AM EDT 10:40 PM EDT
Moon 4:30 AM EDT (7/5) 6:52 PM EDT (7/5)
Length of Visible Light 15h 20m
Length of Day
14h 22m
Waning Crescent, 6% of the Moon is Illuminated
Jul 5
Waning Crescent
Jul 8
New
Jul 15
First Quarter
Jul 22
Full
Jul 29
Last Quarter

Hourly Weather History & Observations

Time (EDT) Temp. Dew Point Humidity Pressure Visibility Wind Dir Wind Speed Gust Speed Precip Events Conditions
12:53 AM 70.0 °F 69.1 °F 97% 30.10 in 10.0 mi SE 3.5 mph - N/A   Scattered Clouds
1:22 AM 69.8 °F 69.8 °F 100% 30.11 in 10.0 mi Calm Calm - N/A   Mostly Cloudy
1:53 AM 70.0 °F 69.1 °F 97% 30.09 in 10.0 mi Calm Calm - N/A   Overcast
2:49 AM 69.8 °F 69.8 °F 100% 30.12 in 10.0 mi SSE 3.5 mph - N/A   Overcast
2:53 AM 70.0 °F 70.0 °F 100% 30.10 in 10.0 mi SSE 3.5 mph - N/A   Overcast
3:25 AM 69.8 °F 69.8 °F 100% 30.12 in 10.0 mi SSE 3.5 mph - 0.00 in   Overcast
3:53 AM 70.0 °F 70.0 °F 100% 30.09 in 9.0 mi SSE 4.6 mph - 0.00 in Rain Light Rain
4:04 AM 69.8 °F 69.8 °F 100% 30.11 in 10.0 mi SE 4.6 mph - 0.00 in   Mostly Cloudy
4:12 AM 69.8 °F 69.8 °F 100% 30.11 in 10.0 mi Variable 3.5 mph - 0.00 in   Scattered Clouds
4:36 AM 69.8 °F 69.8 °F 100% 30.11 in 10.0 mi South 3.5 mph - 0.00 in   Mostly Cloudy
4:53 AM 70.0 °F 69.1 °F 97% 30.09 in 10.0 mi Variable 3.5 mph - 0.00 in   Overcast
5:45 AM 69.8 °F 69.8 °F 100% 30.11 in 10.0 mi SSE 8.1 mph - N/A   Overcast
5:53 AM 70.0 °F 69.1 °F 97% 30.09 in 10.0 mi SSE 8.1 mph - N/A   Mostly Cloudy
6:34 AM 69.8 °F 69.8 °F 100% 30.13 in 10.0 mi Calm Calm - N/A   Mostly Cloudy
6:43 AM 69.8 °F 68.0 °F 94% 30.13 in 10.0 mi South 4.6 mph - N/A   Mostly Cloudy
6:53 AM 70.0 °F 69.1 °F 97% 30.11 in 10.0 mi South 5.8 mph - N/A   Mostly Cloudy
7:53 AM 70.0 °F 68.0 °F 93% 30.14 in 10.0 mi Calm Calm - N/A   Overcast
8:53 AM 71.1 °F 69.1 °F 93% 30.14 in 10.0 mi Variable 5.8 mph - 0.00 in   Overcast
9:53 AM 72.0 °F 70.0 °F 93% 30.15 in 10.0 mi Calm Calm - 0.03 in   Overcast
10:27 AM 71.6 °F 69.8 °F 94% 30.18 in 10.0 mi SE 8.1 mph - N/A   Overcast
10:35 AM 71.6 °F 69.8 °F 94% 30.18 in 10.0 mi SE 6.9 mph - N/A   Overcast
10:53 AM 72.0 °F 70.0 °F 93% 30.15 in 10.0 mi SSE 8.1 mph - N/A   Overcast
11:53 AM 72.0 °F 71.1 °F 97% 30.16 in 8.0 mi SSE 9.2 mph - 0.03 in Rain Light Rain
12:04 PM 71.6 °F 71.6 °F 100% 30.19 in 1.8 mi SE 5.8 mph - 0.04 in Rain Heavy Rain
12:10 PM 71.6 °F 71.6 °F 100% 30.19 in 2.5 mi SSE 6.9 mph - 0.06 in Rain Light Rain
12:14 PM 71.6 °F 71.6 °F 100% 30.19 in 8.0 mi SSE 8.1 mph - 0.06 in Rain Light Rain
12:25 PM 71.6 °F 71.6 °F 100% 30.19 in 10.0 mi South 6.9 mph - 0.06 in Rain Light Rain
12:34 PM 71.6 °F 71.6 °F 100% 30.19 in 6.0 mi South 4.6 mph - 0.07 in Rain Light Rain
12:42 PM 71.6 °F 71.6 °F 100% 30.19 in 1.8 mi SSE 4.6 mph - 0.10 in Rain Rain
12:53 PM 72.0 °F 71.1 °F 97% 30.17 in 1.5 mi SSE 6.9 mph - 0.21 in Rain Heavy Rain
1:09 PM 71.6 °F 71.6 °F 100% 30.19 in 2.0 mi SE 4.6 mph - 0.10 in Rain Rain
1:31 PM 71.6 °F 71.6 °F 100% 30.19 in 7.0 mi Calm Calm - 0.17 in Rain Light Rain
1:53 PM 73.0 °F 72.0 °F 96% 30.17 in 10.0 mi Calm Calm - 0.17 in   Overcast
2:08 PM 73.4 °F 73.4 °F 100% 30.19 in 10.0 mi Calm Calm - N/A   Overcast
2:53 PM 75.9 °F 73.9 °F 94% 30.15 in 10.0 mi Calm Calm - 0.00 in   Overcast
3:31 PM 73.4 °F 71.6 °F 94% 30.16 in 2.5 mi SW 8.1 mph - 0.03 in Rain Light Rain
3:43 PM 73.4 °F 73.4 °F 100% 30.16 in 10.0 mi Variable 3.5 mph - 0.04 in   Overcast
3:53 PM 73.9 °F 72.0 °F 93% 30.13 in 10.0 mi Calm Calm - 0.04 in Rain Light Rain
4:02 PM 73.4 °F 71.6 °F 94% 30.15 in 3.0 mi Calm Calm - 0.00 in Rain Light Rain
4:23 PM 73.4 °F 73.4 °F 100% 30.15 in 10.0 mi Calm Calm - 0.02 in   Overcast
4:43 PM 75.2 °F 73.4 °F 94% 30.14 in 10.0 mi Variable 3.5 mph - 0.02 in   Scattered Clouds
4:53 PM 75.9 °F 73.0 °F 91% 30.11 in 10.0 mi Calm Calm - 0.02 in   Scattered Clouds
5:53 PM 77.0 °F 73.0 °F 88% 30.11 in 10.0 mi ESE 4.6 mph - N/A   Partly Cloudy
6:53 PM 77.0 °F 73.0 °F 88% 30.09 in 10.0 mi East 3.5 mph - N/A   Overcast
7:06 PM 75.2 °F 73.4 °F 94% 30.13 in 1.8 mi SE 8.1 mph - 0.04 in Rain Heavy Rain
7:17 PM 73.4 °F 73.4 °F 100% 30.13 in 3.0 mi ESE 4.6 mph - 0.16 in Rain Light Rain
7:53 PM 73.9 °F 73.0 °F 97% 30.12 in 10.0 mi Calm Calm - 0.16 in   Scattered Clouds
8:53 PM 73.0 °F 73.0 °F 100% 30.12 in 9.0 mi Calm Calm - 0.00 in Rain Light Rain
9:53 PM 73.0 °F 72.0 °F 96% 30.11 in 6.0 mi Calm Calm - 0.00 in Rain Rain
10:07 PM 71.6 °F 71.6 °F 100% 30.14 in 6.0 mi Variable 5.8 mph - 0.05 in Rain Light Rain
10:29 PM 71.6 °F 71.6 °F 100% 30.14 in 10.0 mi SE 6.9 mph - 0.08 in   Mostly Cloudy
10:53 PM 71.1 °F 70.0 °F 96% 30.11 in 10.0 mi SE 4.6 mph - 0.08 in   Scattered Clouds
11:53 PM 71.1 °F 70.0 °F 96% 30.12 in 10.0 mi SE 4.6 mph - N/A   Scattered Clouds